Regional Weather Roundup
Issued by NWS

Home | Current Version | Previous Version | Graphics & Text | Print | Product List | Glossary On
Versions: 1 2 3 4 5 6 7 8 9 10 11 12 13 14 15 16 17 18 19 20 21 22 23 24 25 26 27 28 29 30 31 32 33 34 35 36 37 38 39 40 41 42 43 44 45 46 47 48 49 50
000
ASUS43 KLMK 200502
RWRKY
KENTUCKY REGIONAL WEATHER ROUNDUP
NATIONAL WEATHER SERVICE LOUISVILLE KY
100 AM EDT FRI APR 20 2018

NOTE "FAIR" INDICATES FEW OR NO CLOUDS BELOW 12,000 FEET
WITH NO SIGNIFICANT WEATHER AND/OR OBSTRUCTIONS TO VISIBILITY.

KYZ001>023-026-027-061>063-070>075-200600-
WESTERN AND SOUTH CENTRAL KENTUCKY

CITY           SKY/WX    TMP DP  RH WIND       PRES   REMARKS
PADUCAH        FAIR      39  33  79 CALM      30.38S
HENDERSON      FAIR      38  35  89 NW3       30.39R
OWENSBORO      FAIR      43  33  68 N5        30.38R
HOPKINSVILLE   FAIR      42  33  68 NW3       30.35F
BOWLING GREEN  FAIR      40  34  79 CALM      30.36F
GLASGOW        NOT AVBL
$$

KYZ024-025-028>034-038-045-046-053-200600-
NORTH CENTRAL KENTUCKY

CITY           SKY/WX    TMP DP  RH WIND       PRES   REMARKS
LOUISVILLE/SDF FAIR      46  29  51 N9        30.36R
LOUISVILLE/LOU FAIR      46  29  51 N6        30.36S
FORT KNOX      FAIR      37  29  74 CALM      30.35S
$$

KYZ035>037-039>044-047>052-055>060-089>105-200600-
NORTHEAST KENTUCKY

CITY           SKY/WX    TMP DP  RH WIND       PRES   REMARKS
LEXINGTON      FAIR      40  29  64 W3        30.34R
COVINGTON      FAIR      42  26  53 N9        30.34R
FRANKFORT      FAIR      37  30  75 N3        30.34R
$$

KYZ054-064>069-076>088-106>120-200600-
SOUTHEAST KENTUCKY

CITY           SKY/WX    TMP DP  RH WIND       PRES   REMARKS
JACKSON        FAIR      37  29  72 SW3       30.32S
LONDON         FAIR      34  31  88 CALM      30.34S
SOMERSET       NOT AVBL
MIDDLESBORO    FAIR      34  32  92 CALM      30.36S
MONTICELLO     FAIR      29  27  92 CALM      30.37S
$$




USA.gov is the U.S. government's official web portal to all federal, state and local government web resources and services.